#timestamp,LO_Frequency,Hit,Temp,Hum 
1479531615.8,286046944.1,N,0.0,0.0
1479531635.7,286046944.2,N,0.0,0.0
1479531655.5,286046946.6,N,0.0,0.0
1479531675.3,286046944.0,N,0.0,0.0
1479531695.2,286046944.6,N,0.0,0.0
1479531715.0,286046945.2,N,0.0,0.0
1479531715.9,286046945.2,N,0.0,0.0
1479531735.7,286046945.1,N,0.0,0.0
1479531755.6,286046943.3,N,0.0,0.0
1479531775.4,286046943.4,N,0.0,0.0
1479531795.3,286046943.2,N,0.0,0.0
1479531815.1,286046943.4,N,0.0,0.0
1479531816.0,286046943.4,N,0.0,0.0
1479531835.8,286046941.4,N,0.0,0.0
1479531855.7,286046941.7,N,0.0,0.0
1479531875.5,286046941.9,N,0.0,0.0
1479531895.4,286046941.6,N,0.0,0.0
1479531915.2,286046939.7,N,0.0,0.0
1479531935.0,286046939.8,N,0.0,0.0
1479531935.9,286046939.8,N,0.0,0.0
1479531955.8,286046937.3,N,0.0,0.0
1479531975.6,286046940.1,N,0.0,0.0
1479531995.5,286046940.2,N,0.0,0.0
1479532015.3,286046940.2,N,0.0,0.0
1479532035.1,286046940.4,N,0.0,0.0
1479532055.9,286046939.9,N,0.0,0.0
1479532075.7,286046938.2,N,0.0,0.0
1479532095.5,286046938.6,N,0.0,0.0
1479532115.4,286046938.4,N,0.0,0.0
1479532135.2,286046935.7,N,0.0,0.0
1479532155.1,286046937.2,N,0.0,0.0
1479532156.0,286046937.2,N,0.0,0.0
1479532175.8,286046937.2,N,0.0,0.0
1479532195.6,286046934.5,N,0.0,0.0
1479532215.5,286046936.5,N,0.0,0.0
1479532235.3,286046934.1,N,0.0,0.0
1479532255.1,286046934.3,N,0.0,0.0
1479532275.9,286046935.3,N,0.0,0.0
1479532295.7,286046934.4,N,0.0,0.0
1479532315.6,286046935.4,N,0.0,0.0
1479532335.4,286046935.6,N,0.0,0.0
1479532355.2,286046932.7,N,0.0,0.0
1479532375.1,286046935.6,N,0.0,0.0
1479532376.0,286046935.6,N,0.0,0.0
1479532395.8,286046933.0,N,0.0,0.0
1479532415.6,286046933.2,N,0.0,0.0
1479532435.5,286046933.9,N,0.0,0.0
1479532455.3,286046933.7,N,0.0,0.0
1479532475.2,286046931.2,N,0.0,0.0
1479532495.9,286046931.2,N,0.0,0.0
1479532515.7,286046931.0,N,0.0,0.0
1479532535.6,286046933.6,N,0.0,0.0
1479532555.4,286046931.2,N,0.0,0.0
1479532575.3,286046932.2,N,0.0,0.0
1479532595.1,286046932.0,N,0.0,0.0
1479532596.0,286046932.0,N,0.0,0.0
1479532615.8,286046932.0,N,0.0,0.0
1479532635.7,286046930.0,N,0.0,0.0
1479532655.5,286046930.6,N,0.0,0.0
1479532675.3,286046927.7,N,0.0,0.0
1479532695.2,286046930.8,N,0.0,0.0
1479532715.0,286046927.8,N,0.0,0.0
1479532715.9,286046927.8,N,0.0,0.0
1479532735.8,286046930.7,N,0.0,0.0
1479532755.6,286046930.5,N,0.0,0.0
1479532775.4,286046929.6,N,0.0,0.0
1479532795.3,286046928.1,N,0.0,0.0
1479532815.1,286046928.0,N,0.0,0.0
1479532835.8,286046928.4,N,0.0,0.0
1479532855.7,286046928.9,N,0.0,0.0
1479532875.5,286046927.0,N,0.0,0.0
1479532895.4,286046927.6,N,0.0,0.0
1479532915.2,286046927.1,N,0.0,0.0
1479532935.0,286046927.3,N,0.0,0.0
1479532935.9,286046927.3,N,0.0,0.0
1479532955.8,286046925.0,N,0.0,0.0
1479532975.6,286046925.7,N,0.0,0.0
1479532995.5,286046925.8,N,0.0,0.0
1479533015.3,286046925.4,N,0.0,0.0
1479533035.1,286046923.6,N,0.0,0.0
1479533055.9,286046926.0,N,0.0,0.0
1479533075.7,286046923.2,N,0.0,0.0
1479533095.5,286046923.5,N,0.0,0.0
1479533115.4,286046921.6,N,0.0,0.0
1479533135.2,286046922.7,N,0.0,0.0
1479533155.1,286046922.8,N,0.0,0.0
1479533156.0,286046922.8,N,0.0,0.0
1479533175.8,286046921.7,N,0.0,0.0
1479533195.6,286046921.8,N,0.0,0.0
1479533215.5,286046921.9,N,0.0,0.0
1479533235.3,286046922.0,N,0.0,0.0
1479533255.1,286046921.5,N,0.0,0.0
1479533275.9,286046922.4,N,0.0,0.0
1479533295.7,286046922.4,N,0.0,0.0
1479533315.6,286046922.8,N,0.0,0.0
1479533335.4,286046921.4,N,0.0,0.0
1479533355.2,286046922.7,N,0.0,0.0
1479533375.1,286046919.8,N,0.0,0.0
1479533376.0,286046919.8,N,0.0,0.0
1479533395.8,286046920.6,N,0.0,0.0
1479533415.7,286046920.6,N,0.0,0.0
1479533435.5,286046918.1,N,0.0,0.0
1479533455.3,286046918.9,N,0.0,0.0
1479533475.2,286046919.1,N,0.0,0.0
1479533495.0,286046919.4,N,0.0,0.0
1479533495.9,286046919.4,N,0.0,0.0
1479533515.8,286046916.8,N,0.0,0.0
1479533535.6,286046916.8,N,0.0,0.0
1479533555.4,286046917.4,N,0.0,0.0
1479533575.3,286046919.4,N,0.0,0.0
1479533595.1,286046917.2,N,0.0,0.0
1479533615.8,286046918.0,N,0.0,0.0
1479533635.7,286046915.1,N,0.0,0.0
1479533655.5,286046917.4,N,0.0,0.0
1479533675.4,286046915.0,N,0.0,0.0
1479533695.2,286046915.4,N,0.0,0.0
1479533715.0,286046916.1,N,0.0,0.0
1479533715.9,286046916.1,N,0.0,0.0
1479533735.8,286046915.1,N,0.0,0.0
1479533755.6,286046916.2,N,0.0,0.0
1479533775.4,286046915.9,N,0.0,0.0
1479533795.3,286046915.5,N,0.0,0.0
1479533815.1,286046914.9,N,0.0,0.0
1479533835.9,286046916.3,N,0.0,0.0
1479533855.7,286046916.3,N,0.0,0.0
1479533875.5,286046915.7,N,0.0,0.0
1479533895.4,286046915.5,N,0.0,0.0
1479533915.2,286046916.4,N,0.0,0.0
1479533935.0,286046913.7,N,0.0,0.0
1479533936.0,286046913.7,N,0.0,0.0
1479533955.8,286046913.4,N,0.0,0.0
1479533975.6,286046914.0,N,0.0,0.0
1479533995.5,286046914.6,N,0.0,0.0
1479534015.3,286046914.4,N,0.0,0.0
1479534035.1,286046912.1,N,0.0,0.0
1479534055.9,286046911.7,N,0.0,0.0
1479534075.7,286046912.4,N,0.0,0.0
1479534095.6,286046912.2,N,0.0,0.0
1479534115.4,286046912.2,N,0.0,0.0
1479534135.2,286046914.7,N,0.0,0.0
1479534155.1,286046912.7,N,0.0,0.0
1479534156.0,286046912.7,N,0.0,0.0
1479534175.8,286046910.3,N,0.0,0.0
1479534195.6,286046910.4,N,0.0,0.0
1479534215.5,286046910.5,N,0.0,0.0
1479534235.3,286046910.8,N,0.0,0.0
1479534255.2,286046910.9,N,0.0,0.0
1479534275.9,286046911.0,N,0.0,0.0
1479534295.7,286046910.6,N,0.0,0.0
1479534315.6,286046909.0,N,0.0,0.0
1479534335.4,286046908.8,N,0.0,0.0
1479534355.2,286046909.7,N,0.0,0.0
1479534375.1,286046908.8,N,0.0,0.0
1479534376.0,286046908.8,N,0.0,0.0
1479534395.8,286046910.0,N,0.0,0.0
1479534415.7,286046909.5,N,0.0,0.0
1479534435.5,286046909.3,N,0.0,0.0
1479534455.3,286046909.0,N,0.0,0.0
1479534475.2,286046909.8,N,0.0,0.0
1479534495.0,286046909.8,N,0.0,0.0
1479534495.9,286046909.8,N,0.0,0.0
1479534515.8,286046910.0,N,0.0,0.0
1479534535.6,286046909.7,N,0.0,0.0
1479534555.4,286046908.1,N,0.0,0.0
1479534575.3,286046908.4,N,0.0,0.0
1479534595.1,286046905.9,N,0.0,0.0
1479534615.9,286046908.4,N,0.0,0.0
1479534635.7,286046905.7,N,0.0,0.0
1479534655.5,286046905.8,N,0.0,0.0
1479534675.4,286046905.4,N,0.0,0.0
1479534695.2,286046907.9,N,0.0,0.0
1479534715.0,286046905.6,N,0.0,0.0
1479534715.9,286046905.6,N,0.0,0.0
1479534735.8,286046906.2,N,0.0,0.0
1479534755.6,286046906.3,N,0.0,0.0
1479534775.5,286046906.1,N,0.0,0.0
1479534795.3,286046903.9,N,0.0,0.0
1479534815.1,286046904.3,N,0.0,0.0
1479534835.9,286046904.4,N,0.0,0.0
1479534855.7,286046903.7,N,0.0,0.0
1479534875.5,286046904.5,N,0.0,0.0
1479534895.4,286046904.0,N,0.0,0.0
1479534915.2,286046904.3,N,0.0,0.0
1479534935.1,286046904.1,N,0.0,0.0
1479534936.0,286046904.1,N,0.0,0.0
1479534955.8,286046904.5,N,0.0,0.0
1479534975.6,286046902.3,N,0.0,0.0
1479534995.5,286046902.6,N,0.0,0.0
1479535015.3,286046902.6,N,0.0,0.0
1479535035.2,286046903.3,N,0.0,0.0
1479535055.9,286046903.0,N,0.0,0.0
1479535075.7,286046902.3,N,0.0,0.0
1479535095.6,286046904.8,N,0.0,0.0
1479535115.4,286046903.3,N,0.0,0.0
1479535135.2,286046902.4,N,0.0,0.0
1479535155.1,286046902.4,N,0.0,0.0
1479535156.0,286046902.4,N,0.0,0.0
1479535175.8,286046902.6,N,0.0,0.0
1479535195.7,286046900.7,N,0.0,0.0
